DW1114 Weather Reports


Display with metric or nautical units.
time (UTC)temp
F
wind
direction
speed
MPH
gust
MPH
rain 1hr
in
rain 24hr
in
rain mn
in
humidity
%
barometer
mb
20260904101903 78 184 0.0 6.0 0.00 0.00 0.00 1014.3
20260904101403 78 251 0.0 6.0 0.00 0.00 0.00 1014.3
20260904100903 78 209 0.0 2.0 0.00 0.00 0.00 1014.3
20260904100403 78 204 0.0 6.0 0.00 0.00 0.00 1014.6
20260904095903 78 202 0.0 6.0 0.00 0.00 0.00 1013.9
20260904095424 78 192 0.0 5.0 0.00 0.00 0.00 1013.9
20260904094924 77 201 0.0 6.0 0.00 0.00 0.00 1013.9
20260904094403 77 201 0.0 6.0 0.00 0.00 0.00 1013.9
20260904093902 77 191 0.0 6.0 0.00 0.00 0.00 1014.3
20260904093403 77 181 0.0 6.0 0.00 0.00 0.00 1014.6
20260904092903 76 196 0.0 6.0 0.00 0.00 0.00 1013.9
20260904091403 77 158 0.0 0.0 0.00 0.00 0.00 1013.9
20260904090903 77 45 0.0 0.0 0.00 0.00 0.00 1013.9
20260904090404 77 68 0.0 0.0 0.00 0.00 0.00 1014.6
20260904085924 77 180 0.0 0.0 0.00 0.00 0.00 1014.3
20260904084403 78 158 0.0 3.0 0.00 0.00 0.00 1013.9
20260904083903 78 180 0.0 0.0 0.00 0.00 0.00 1014.3
20260904083403 78 45 0.0 0.0 0.00 0.00 0.00 1014.6
20260904082902 79 90 0.0 0.0 0.00 0.00 0.00 1013.9
20260904082403 79 203 0.0 0.0 0.00 0.00 0.00 1013.9
20260904081903 80 225 0.0 6.0 0.00 0.00 0.00 1014.3
20260904081403 80 291 0.0 6.0 0.00 0.00 0.00 1014.3
20260904080903 80 285 0.0 5.0 0.00 0.00 0.00 1014.6
20260904080402 80 315 0.0 6.0 0.00 0.00 0.00 1014.6
20260904075903 80 174 0.0 6.0 0.00 0.00 0.00 1014.6
20260904075403 80 239 0.0 6.0 0.00 0.00 0.00 1014.6
20260904074903 80 286 1.0 6.0 0.00 0.00 0.00 1013.9
20260904074424 80 184 0.0 2.0 0.00 0.00 0.00 1013.9
20260904073903 80 208 0.0 1.0 0.00 0.00 0.00 1014.3
20260904073403 80 338 0.0 6.0 0.00 0.00 0.00 1013.9
20260904072924 80 202 0.0 6.0 0.00 0.00 0.00 1014.3
20260904072424 80 224 0.0 6.0 0.00 0.00 0.00 1014.9
20260904071903 79 248 0.0 6.0 0.00 0.00 0.00 1014.9
20260904071402 79 293 0.0 3.0 0.00 0.00 0.00 1014.9
20260904070903 79 223 0.0 3.0 0.00 0.00 0.00 1014.6
20260904070402 79 225 0.0 0.0 0.00 0.00 0.00 1014.3
20260904065924 78 203 0.0 0.0 0.00 0.00 0.00 1014.3
20260904065445 78 225 0.0 0.0 0.00 0.00 0.00 1014.3
20260904064903 78 270 0.0 0.0 0.00 0.00 0.00 1014.6
20260904064403 78 225 0.0 6.0 0.00 0.00 0.00 1014.6
20260904063903 78 180 0.0 6.0 0.00 0.00 0.00 1014.6
20260904063403 78 203 0.0 0.0 0.00 0.00 0.00 1014.6
20260904062903 78 203 0.0 0.0 0.00 0.00 0.00 1014.6
20260904062424 78 315 0.0 0.0 0.00 0.00 0.00 1014.6
20260904061903 79 203 0.0 0.0 0.00 0.00 0.00 1014.9
20260904061403 79 203 0.0 0.0 0.00 0.00 0.00 1014.9
20260904060903 79 203 0.0 0.0 0.00 0.00 0.00 1014.9
20260904060403 79 338 0.0 0.0 0.00 0.00 0.00 1015.6
20260904055903 79 338 0.0 0.0 0.00 0.00 0.00 1015.3
20260904055424 79 338 0.0 6.0 0.00 0.00 0.00 1015.6
20260904054903 79 180 0.0 6.0 0.00 0.00 0.00 1015.3
20260904054403 79 158 0.0 0.0 0.00 0.00 0.00 1015.3
20260904053902 79 180 0.0 6.0 0.00 0.00 0.00 1015.6
20260904053403 79 158 0.0 6.0 0.00 0.00 0.00 1014.9
20260904052903 79 158 0.0 0.0 0.00 0.00 0.00 1014.9
20260904052403 79 113 0.0 0.0 0.00 0.00 0.00 1014.9
20260904051903 79 203 0.0 0.0 0.00 0.00 0.00 1016.0
20260904051403 79 203 0.0 0.0 0.00 0.00 0.00 1016.0
20260904050903 80 158 0.0 0.0 0.00 0.00 0.00 1015.3
20260904050403 80 180 0.0 0.0 0.00 0.00 0.00 1015.3
20260904045903 80 158 0.0 0.0 0.00 0.00 0.00 1015.3
20260904045402 80 158 0.0 0.0 0.00 0.00 0.00 1014.9
20260904044903 80 338 0.0 0.0 0.00 0.00 0.00 1014.9
20260904044403 80 338 0.0 0.0 0.00 0.00 0.00 1014.9
20260904043924 80 203 0.0 0.0 0.00 0.00 0.00 1014.9
20260904043424 80 203 0.0 6.0 0.00 0.00 0.00 1014.9
20260904042903 80 202 0.0 6.0 0.00 0.00 0.00 1014.9
20260904042403 80 203 0.0 0.0 0.00 0.00 0.00 1014.9
20260904041902 81 45 0.0 0.0 0.00 0.00 0.00 1015.3
20260904041403 81 45 0.0 0.0 0.00 0.00 0.00 1014.9
20260904040903 81 315 0.0 0.0 0.00 0.00 0.00 1014.9
20260904040403 81 338 0.0 6.0 0.00 0.00 0.00 1015.6
20260904035903 81 270 0.0 6.0 0.00 0.00 0.00 1014.9
20260904035403 81 202 0.0 4.0 0.00 0.00 0.00 1014.6
20260904034903 81 225 0.0 2.0 0.00 0.00 0.00 1015.3
20260904034424 82 180 0.0 0.0 0.00 0.00 0.00 1014.9
20260904033903 82 360 0.0 0.0 0.00 0.00 0.00 1015.3
20260904033403 83 360 0.0 0.0 0.00 0.00 0.00 1015.3
20260904032903 84 360 0.0 2.0 0.00 0.00 0.00 1015.3
20260904032403 84 340 0.0 2.0 0.00 0.00 0.00 1015.3
20260904031903 84 315 0.0 2.0 0.00 0.00 0.00 1015.6
20260904031402 84 338 0.0 2.0 0.00 0.00 0.00 1015.6
20260904030903 85 360 0.0 5.0 0.00 0.00 0.00 1015.6
20260904030403 85 331 0.0 5.0 0.00 0.00 0.00 1015.6
20260904025903 85 275 0.0 5.0 0.00 0.00 0.00 1015.3
20260904025403 86 347 0.0 2.0 0.00 0.00 0.00 1015.6
20260904024903 86 317 0.0 3.0 0.00 0.00 0.00 1015.6
20260904024424 85 329 1.0 4.0 0.00 0.00 0.00 1015.6
20260904023903 84 347 0.0 4.0 0.00 0.00 0.00 1015.6
20260904023403 84 23 0.0 0.0 0.00 0.00 0.00 1015.3
20260904022903 84 203 0.0 2.0 0.00 0.00 0.00 1014.9
20260904022403 85 270 0.0 2.0 0.00 0.00 0.00 1015.3
20260904021903 85 158 0.0 0.0 0.00 0.00 0.00 1015.3
20260904021424 85 270 0.0 5.0 0.00 0.00 0.00 1015.3
20260904020902 85 209 0.0 5.0 0.00 0.00 0.00 1015.3
20260904020445 85 202 0.0 6.0 0.00 0.00 0.00 1015.6
20260904015903 85 199 0.0 6.0 0.00 0.00 0.00 1014.9
20260904015424 85 45 0.0 2.0 0.00 0.00 0.00 1014.9
20260904014903 86 201 0.0 2.0 0.00 0.00 0.00 1015.3
20260904014402 86 193 0.0 1.0 0.00 0.00 0.00 1014.9
20260904013903 85 202 0.0 1.0 0.00 0.00 0.00 1014.9
20260904013403 86 248 0.0 0.0 0.00 0.00 0.00 1015.3
20260904012903 86 202 0.0 1.0 0.00 0.00 0.00 1014.6
20260904012403 86 202 0.0 3.0 0.00 0.00 0.00 1015.3
20260904011903 86 202 0.0 5.0 0.00 0.00 0.00 1014.9
20260904011403 86 201 0.0 5.0 0.00 0.00 0.00 1014.9
20260904010903 86 211 0.0 1.0 0.00 0.00 0.00 1014.9
20260904010403 86 203 0.0 3.0 0.00 0.00 0.00 1015.3
20260904005903 86 202 0.0 6.0 0.00 0.00 0.00 1014.9
20260904005403 87 202 0.0 6.0 0.00 0.00 0.00 1014.9
20260904004903 87 180 0.0 4.0 0.00 0.00 0.00 1014.9
20260904004403 87 203 0.0 6.0 0.00 0.00 0.00 1014.6
20260904003903 87 180 0.0 6.0 0.00 0.00 0.00 1014.6
20260904003403 87 203 0.0 0.0 0.00 0.00 0.00 1014.6
20260904002903 87 248 0.0 0.0 0.00 0.00 0.00 1014.9
20260904002425 87 203 0.0 0.0 0.00 0.00 0.00 1014.6
20260904001903 88 338 0.0 6.0 0.00 0.00 0.00 1014.6
20260904001403 88 360 0.0 6.0 0.00 0.00 0.00 1014.9
20260904000903 88 327 2.0 6.0 0.00 0.00 0.00 1014.9
20260904000403 89 224 0.0 6.0 0.00 0.00 0.00 1014.6
20260903235903 90 269 0.0 5.0 0.00 0.00 0.00 1014.9
20260903235425 90 281 0.0 5.0 0.00 0.00 0.00 1014.9
20260903234903 90 259 0.0 7.0 0.00 0.00 0.00 1014.9
20260903234424 90 264 1.0 7.0 0.00 0.00 0.00 1015.3
20260903233903 90 287 1.0 6.0 0.00 0.00 0.00 1014.6
20260903233403 91 257 0.0 6.0 0.00 0.00 0.00 1014.6
20260903232902 91 280 2.0 6.0 0.00 0.00 0.00 1014.9
20260903232403 91 273 2.0 9.0 0.00 0.00 0.00 1014.6
20260903231902 91 266 3.0 9.0 0.00 0.00 0.00 1014.3
20260903231403 91 250 3.0 7.0 0.00 0.00 0.00 1014.6
20260903230903 92 272 4.0 9.0 0.00 0.00 0.00 1014.6
20260903230403 92 296 5.0 12.0 0.00 0.00 0.00 1014.6
20260903225903 93 279 3.0 12.0 0.00 0.00 0.00 1014.3
20260903225402 94 274 4.0 10.0 0.00 0.00 0.00 1014.6
20260903224903 94 264 3.0 10.0 0.00 0.00 0.00 1014.9
20260903224403 94 263 5.0 12.0 0.00 0.00 0.00 1014.3
20260903223903 96 295 5.0 12.0 0.00 0.00 0.00 1014.9
20260903223403 96 283 3.0 10.0 0.00 0.00 0.00 1014.6
20260903222903 96 271 4.0 11.0 0.00 0.00 0.00 1014.6
20260903222403 96 280 5.0 11.0 0.00 0.00 0.00 1015.3
20260903221902 95 252 3.0 10.0 0.00 0.00 0.00 1014.9
20260903221403 96 262 3.0 10.0 0.00 0.00 0.00 1014.6
20260903220903 96 282 4.0 12.0 0.00 0.00 0.00 1014.6
20260903220403 96 275 5.0 12.0 0.00 0.00 0.00 1014.3
20260903215903 97 268 4.0 15.0 0.00 0.00 0.00 1013.9
20260903214924 95 284 5.0 11.0 0.00 0.00 0.00 1014.3
20260903214403 95 214 2.0 14.0 0.00 0.00 0.00 1013.9
20260903213904 96 274 4.0 15.0 0.00 0.00 0.00 1014.3
20260903213403 96 259 3.0 15.0 0.00 0.00 0.00 1014.3
20260903212925 96 278 3.0 13.0 0.00 0.00 0.00 1014.6
20260903212424 95 225 3.0 13.0 0.00 0.00 0.00 1013.9
20260903211903 95 285 4.0 11.0 0.00 0.00 0.00 1013.6
20260903211403 94 256 3.0 9.0 0.00 0.00 0.00 1014.3
20260903210903 94 197 4.0 17.0 0.00 0.00 0.00 1013.9
20260903210404 95 257 3.0 17.0 0.00 0.00 0.00 1013.9
20260903205903 95 255 3.0 14.0 0.00 0.00 0.00 1013.9
20260903205403 95 265 4.0 14.0 0.00 0.00 0.00 1014.3
20260903204902 95 264 5.0 14.0 0.00 0.00 0.00 1013.6
20260903204404 96 248 2.0 12.0 0.00 0.00 0.00 1013.9
20260903203903 95 211 2.0 12.0 0.00 0.00 0.00 1013.9
20260903203403 95 249 3.0 12.0 0.00 0.00 0.00 1014.3
20260903202903 94 272 5.0 14.0 0.00 0.00 0.00 1013.9
20260903202403 94 292 7.0 14.0 0.00 0.00 0.00 1013.9
20260903201903 94 279 8.0 14.0 0.00 0.00 0.00 1013.9
20260903201403 94 261 5.0 11.0 0.00 0.00 0.00 1014.3
20260903200923 94 267 5.0 11.0 0.00 0.00 0.00 1014.6
20260903200403 93 228 3.0 16.0 0.00 0.00 0.00 1014.3
20260903195924 93 279 5.0 16.0 0.00 0.00 0.00 1014.6
20260903195403 93 263 3.0 12.0 0.00 0.00 0.00 1014.6
20260903194903 93 280 5.0 12.0 0.00 0.00 0.00 1014.9
20260903194404 94 244 4.0 11.0 0.00 0.00 0.00 1014.9
20260903193903 94 289 6.0 15.0 0.00 0.00 0.00 1014.9
20260903193403 93 286 6.0 15.0 0.00 0.00 0.00 1014.9
20260903192903 93 304 3.0 11.0 0.00 0.00 0.00 1014.9
20260903192403 94 283 6.0 11.0 0.00 0.00 0.00 1015.3
20260903191903 94 275 5.0 14.0 0.00 0.00 0.00 1015.6
20260903191403 94 269 7.0 14.0 0.00 0.00 0.00 1015.3
20260903190924 94 289 5.0 11.0 0.00 0.00 0.00 1015.3
20260903190424 95 277 4.0 9.0 0.00 0.00 0.00 1014.9
20260903185903 94 268 3.0 8.0 0.00 0.00 0.00 1015.3
20260903185402 95 276 3.0 7.0 0.00 0.00 0.00 1015.6
20260903184924 94 246 3.0 9.0 0.00 0.00 0.00 1015.6
20260903184403 93 269 4.0 15.0 0.00 0.00 0.00 1015.6
20260903183903 93 269 7.0 15.0 0.00 0.00 0.00 1015.6
20260903183403 93 267 2.0 10.0 0.00 0.00 0.00 1016.0
20260903182924 94 268 5.0 13.0 0.00 0.00 0.00 1015.6
20260903182403 93 284 7.0 15.0 0.00 0.00 0.00 1015.6
20260903181903 92 286 6.0 15.0 0.00 0.00 0.00 1016.0
20260903181424 93 282 5.0 11.0 0.00 0.00 0.00 1016.3
20260903180903 93 281 3.0 11.0 0.00 0.00 0.00 1016.0
20260903180402 93 278 4.0 11.0 0.00 0.00 0.00 1016.0
20260903175903 93 294 5.0 9.0 0.00 0.00 0.00 1016.3
20260903175402 93 279 2.0 11.0 0.00 0.00 0.00 1016.3
20260903174904 92 254 3.0 12.0 0.00 0.00 0.00 1015.6
20260903174403 93 284 5.0 12.0 0.00 0.00 0.00 1015.6
20260903173903 93 290 4.0 10.0 0.00 0.00 0.00 1016.3
20260903173403 93 259 3.0 11.0 0.00 0.00 0.00 1016.3
20260903172903 93 274 4.0 11.0 0.00 0.00 0.00 1016.3
20260903172424 92 190 1.0 14.0 0.00 0.00 0.00 1016.3
20260903171924 92 298 8.0 14.0 0.00 0.00 0.00 1016.6
20260903171402 92 258 3.0 12.0 0.00 0.00 0.00 1016.6
20260903170903 92 248 4.0 12.0 0.00 0.00 0.00 1016.6
20260903170403 92 260 4.0 11.0 0.00 0.00 0.00 1017.0
20260903165903 92 196 3.0 10.0 0.00 0.00 0.00 1016.3
20260903165403 91 285 5.0 12.0 0.00 0.00 0.00 1016.3
20260903164903 91 302 6.0 12.0 0.00 0.00 0.00 1016.0
20260903164403 91 289 6.0 13.0 0.00 0.00 0.00 1016.6
20260903163903 91 220 3.0 13.0 0.00 0.00 0.00 1016.3
20260903163402 91 272 3.0 9.0 0.00 0.00 0.00 1017.0
20260903162945 91 262 3.0 10.0 0.00 0.00 0.00 1016.6
20260903161403 90 273 5.0 10.0 0.00 0.00 0.00 1017.0
20260903160903 90 283 3.0 7.0 0.00 0.00 0.00 1017.0
20260903160403 90 254 2.0 11.0 0.00 0.00 0.00 1016.6
20260903155903 89 279 4.0 11.0 0.00 0.00 0.00 1016.3
20260903155403 89 273 5.0 11.0 0.00 0.00 0.00 1016.6
20260903154903 90 266 3.0 10.0 0.00 0.00 0.00 1016.6
20260903154403 89 225 2.0 8.0 0.00 0.00 0.00 1017.0
20260903153924 89 273 2.0 10.0 0.00 0.00 0.00 1016.6
20260903153402 89 278 4.0 10.0 0.00 0.00 0.00 1017.0
20260903152903 89 197 2.0 5.0 0.00 0.00 0.00 1016.6
20260903152403 88 274 2.0 6.0 0.00 0.00 0.00 1017.0
20260903151903 88 244 3.0 6.0 0.00 0.00 0.00 1017.0
20260903151403 88 283 3.0 8.0 0.00 0.00 0.00 1017.3
20260903150903 87 251 2.0 10.0 0.00 0.00 0.00 1017.0
20260903150403 87 270 4.0 10.0 0.00 0.00 0.00 1017.0
20260903145902 87 281 4.0 8.0 0.00 0.00 0.00 1017.0
20260903145424 87 277 4.0 7.0 0.00 0.00 0.00 1016.6
20260903144924 87 256 3.0 11.0 0.00 0.00 0.00 1016.6
20260903144403 86 259 2.0 11.0 0.00 0.00 0.00 1016.3
20260903143903 87 289 3.0 6.0 0.00 0.00 0.00 1016.6
20260903143403 86 261 0.0 9.0 0.00 0.00 0.00 1016.6
20260903142903 86 283 4.0 9.0 0.00 0.00 0.00 1016.6
20260903142403 86 308 2.0 8.0 0.00 0.00 0.00 1016.6
20260903141924 85 268 3.0 8.0 0.00 0.00 0.00 1016.6
20260903141403 85 267 1.0 8.0 0.00 0.00 0.00 1016.6
20260903140903 85 262 4.0 11.0 0.00 0.00 0.00 1016.6
20260903140403 84 296 3.0 11.0 0.00 0.00 0.00 1016.6
20260903135903 84 289 5.0 11.0 0.00 0.00 0.00 1016.3
20260903135403 84 263 4.0 8.0 0.00 0.00 0.00 1016.3
20260903134903 84 277 3.0 8.0 0.00 0.00 0.00 1016.3
20260903134402 84 273 1.0 9.0 0.00 0.00 0.00 1016.3
20260903133903 84 273 5.0 9.0 0.00 0.00 0.00 1016.3
20260903133403 84 275 3.0 8.0 0.00 0.00 0.00 1016.3
20260903132903 83 264 3.0 8.0 0.00 0.00 0.00 1016.3
20260903132403 83 250 2.0 9.0 0.00 0.00 0.00 1016.6
20260903131903 83 263 3.0 9.0 0.00 0.00 0.00 1016.6
20260903131403 83 225 1.0 6.0 0.00 0.00 0.00 1016.0
20260903130903 83 282 3.0 12.0 0.00 0.00 0.00 1016.3
20260903130403 82 256 2.0 12.0 0.00 0.00 0.00 1016.3
20260903125902 82 205 1.0 7.0 0.00 0.00 0.00 1016.6
20260903125424 82 245 2.0 7.0 0.00 0.00 0.00 1016.6
20260903124903 81 190 1.0 6.0 0.00 0.00 0.00 1016.3
20260903124425 81 242 1.0 4.0 0.00 0.00 0.00 1016.3
20260903123903 81 232 1.0 6.0 0.00 0.00 0.00 1016.6
20260903123403 81 284 1.0 6.0 0.00 0.00 0.00 1016.3
20260903122923 80 227 0.0 5.0 0.00 0.00 0.00 1016.0
20260903122403 80 249 0.0 5.0 0.00 0.00 0.00 1016.0
20260903121903 80 184 0.0 3.0 0.00 0.00 0.00 1016.0
20260903121403 79 205 1.0 3.0 0.00 0.00 0.00 1016.3
20260903120902 79 199 1.0 3.0 0.00 0.00 0.00 1016.3
20260903120403 79 198 1.0 6.0 0.00 0.00 0.00 1016.3
20260903115924 79 258 0.0 6.0 0.00 0.00 0.00 1016.3
20260903115424 79 211 0.0 3.0 0.00 0.00 0.00 1015.6
20260903114902 79 204 0.0 3.0 0.00 0.00 0.00 1016.0
20260903114403 79 199 2.0 4.0 0.00 0.00 0.00 1015.6
20260903113904 78 201 1.0 6.0 0.00 0.00 0.00 1015.6
20260903113403 78 183 0.0 6.0 0.00 0.00 0.00 1016.3
20260903112903 78 203 2.0 3.0 0.00 0.00 0.00 1016.0
20260903112403 78 196 2.0 3.0 0.00 0.00 0.00 1016.0
20260903111903 78 199 2.0 3.0 0.00 0.00 0.00 1016.0
20260903111402 78 202 2.0 3.0 0.00 0.00 0.00 1016.0
20260903110903 79 202 2.0 3.0 0.00 0.00 0.00 1016.0
20260903110403 78 199 2.0 3.0 0.00 0.00 0.00 1015.6
20260903105903 79 197 2.0 3.0 0.00 0.00 0.00 1015.6
20260903105403 79 200 1.0 3.0 0.00 0.00 0.00 1015.6
20260903104902 79 203 2.0 3.0 0.00 0.00 0.00 1016.0
20260903104424 79 203 2.0 6.0 0.00 0.00 0.00 1016.0
20260903103924 79 211 0.0 6.0 0.00 0.00 0.00 1016.0
20260903103402 79 194 0.0 3.0 0.00 0.00 0.00 1016.0
20260903102903 79 202 0.0 3.0 0.00 0.00 0.00 1015.6
20260903102403 80 198 0.0 3.0 0.00 0.00 0.00 1016.0